EN

Hourly Weather Ladza

Today, 28 July, Wednesday

Time Temperature Precipitation Wind Pressure Humidity
00:00 +22°C° 0.1 mm 1 mps 746 mmHg 70%
01:00 +21°C° 0 mm 1 mps 745 mmHg 72%
02:00 +21°C° 0 mm 1 mps 745 mmHg 73%
03:00 +20°C° 0 mm 2 mps 745 mmHg 74%
04:00 +20°C° 0 mm 2 mps 745 mmHg 75%
05:00 +21°C° 0 mm 2 mps 745 mmHg 72%
06:00 +23°C° 0 mm 1 mps 745 mmHg 69%
07:00 +24°C° 0 mm 1 mps 745 mmHg 67%
08:00 +26°C° 0 mm 2 mps 745 mmHg 60%
09:00 +28°C° 0 mm 2 mps 745 mmHg 54%
10:00 +30°C° 0 mm 2 mps 744 mmHg 47%
11:00 +31°C° 0 mm 2 mps 744 mmHg 44%
12:00 +32°C° 0 mm 2 mps 744 mmHg 41%
13:00 +32°C° 0 mm 2 mps 744 mmHg 37%
14:00 +30°C° 1.1 mm 3 mps 744 mmHg 50%
15:00 +27°C° 1.1 mm 4 mps 744 mmHg 63%
16:00 +23°C° 1.1 mm 5 mps 744 mmHg 75%
17:00 +23°C° 0.8 mm 5 mps 744 mmHg 78%
18:00 +22°C° 0.8 mm 4 mps 744 mmHg 82%
19:00 +21°C° 0.8 mm 4 mps 745 mmHg 85%
20:00 +20°C° 0.4 mm 4 mps 745 mmHg 87%
21:00 +20°C° 0.4 mm 3 mps 745 mmHg 90%
22:00 +19°C° 0.4 mm 2 mps 745 mmHg 92%
23:00 +19°C° 0.1 mm 2 mps 745 mmHg 92%

Tomorrow, 29 July, Thursday

Time Temperature Precipitation Wind Pressure Humidity
00:00 +19°C° 0.1 mm 2 mps 745 mmHg 91%
01:00 +19°C° 0.1 mm 2 mps 745 mmHg 91%
02:00 +18°C° 0 mm 2 mps 746 mmHg 91%
03:00 +18°C° 0 mm 2 mps 746 mmHg 91%
04:00 +17°C° 0 mm 2 mps 746 mmHg 91%
05:00 +18°C° 0 mm 2 mps 746 mmHg 86%
06:00 +19°C° 0 mm 2 mps 746 mmHg 81%
07:00 +20°C° 0 mm 3 mps 746 mmHg 76%
08:00 +22°C° 0 mm 3 mps 746 mmHg 69%
09:00 +24°C° 0 mm 3 mps 746 mmHg 61%
10:00 +26°C° 0 mm 4 mps 746 mmHg 54%
11:00 +26°C° 0 mm 5 mps 746 mmHg 50%
12:00 +27°C° 0 mm 5 mps 746 mmHg 47%
13:00 +28°C° 0 mm 6 mps 746 mmHg 43%
14:00 +28°C° 0 mm 6 mps 745 mmHg 42%
15:00 +28°C° 0 mm 6 mps 745 mmHg 40%
16:00 +28°C° 0 mm 5 mps 745 mmHg 39%
17:00 +27°C° 0 mm 4 mps 745 mmHg 46%
18:00 +25°C° 0 mm 3 mps 745 mmHg 52%
19:00 +24°C° 0 mm 2 mps 745 mmHg 58%
20:00 +23°C° 0 mm 2 mps 745 mmHg 60%
21:00 +20°C° 0 mm 2 mps 745 mmHg 63%
22:00 +19°C° 0 mm 2 mps 745 mmHg 65%
23:00 +19°C° 0 mm 2 mps 745 mmHg 66%

Day after tomorrow, 30 July, Friday

Time Temperature Precipitation Wind Pressure Humidity
00:00 +19°C° 0 mm 1 mps 745 mmHg 68%
01:00 +19°C° 0 mm 1 mps 745 mmHg 69%
02:00 +18°C° 0 mm 1 mps 745 mmHg 70%
03:00 +18°C° 0 mm 1 mps 745 mmHg 70%
04:00 +17°C° 0 mm 2 mps 744 mmHg 71%
05:00 +18°C° 0 mm 2 mps 744 mmHg 68%
06:00 +20°C° 0 mm 2 mps 745 mmHg 65%
07:00 +21°C° 0 mm 2 mps 745 mmHg 61%
08:00 +24°C° 0 mm 3 mps 744 mmHg 56%
09:00 +25°C° 0 mm 3 mps 744 mmHg 51%
10:00 +27°C° 0 mm 3 mps 744 mmHg 46%
11:00 +28°C° 0 mm 4 mps 744 mmHg 43%
12:00 +29°C° 0 mm 4 mps 743 mmHg 41%
13:00 +30°C° 0 mm 4 mps 743 mmHg 38%
14:00 +30°C° 0 mm 4 mps 743 mmHg 38%
15:00 +30°C° 0 mm 4 mps 742 mmHg 38%
16:00 +30°C° 0 mm 5 mps 742 mmHg 37%
17:00 +29°C° 0 mm 4 mps 742 mmHg 44%
18:00 +27°C° 0 mm 3 mps 742 mmHg 52%
19:00 +26°C° 0 mm 1 mps 741 mmHg 59%
20:00 +25°C° 0 mm 1 mps 741 mmHg 60%
21:00 +24°C° 0 mm 1 mps 741 mmHg 60%
22:00 +23°C° 0 mm 1 mps 741 mmHg 61%
23:00 +23°C° 0 mm 2 mps 741 mmHg 64%

31 July, Saturday

Time Temperature Precipitation Wind Pressure Humidity
00:00 +21°C° 0 mm 2 mps 741 mmHg 67%
01:00 +21°C° 0 mm 2 mps 741 mmHg 71%
02:00 +20°C° 0.2 mm 2 mps 741 mmHg 75%
03:00 +20°C° 0.2 mm 3 mps 741 mmHg 80%
04:00 +19°C° 0.2 mm 3 mps 741 mmHg 85%
05:00 +20°C° 0 mm 4 mps 741 mmHg 83%
06:00 +20°C° 0 mm 5 mps 741 mmHg 81%
07:00 +21°C° 0 mm 5 mps 742 mmHg 78%
08:00 +21°C° 0 mm 5 mps 742 mmHg 71%
09:00 +22°C° 0 mm 5 mps 742 mmHg 63%
10:00 +23°C° 0 mm 5 mps 743 mmHg 55%
11:00 +25°C° 0 mm 5 mps 742 mmHg 50%
12:00 +26°C° 0 mm 5 mps 742 mmHg 45%
13:00 +27°C° 0 mm 5 mps 742 mmHg 39%
14:00 +27°C° 0 mm 5 mps 742 mmHg 39%
15:00 +27°C° 0 mm 5 mps 742 mmHg 38%
16:00 +27°C° 0 mm 6 mps 742 mmHg 38%
17:00 +26°C° 0 mm 5 mps 742 mmHg 42%
18:00 +25°C° 0 mm 4 mps 742 mmHg 47%
19:00 +24°C° 0 mm 3 mps 743 mmHg 52%
20:00 +21°C° 0 mm 3 mps 743 mmHg 56%
21:00 +20°C° 0 mm 2 mps 743 mmHg 61%
22:00 +18°C° 0 mm 2 mps 743 mmHg 65%
23:00 +18°C° 0 mm 2 mps 743 mmHg 67%

1 August, Sunday

Time Temperature Precipitation Wind Pressure Humidity
00:00 +17°C° 0 mm 2 mps 743 mmHg 69%
01:00 +16°C° 0 mm 1 mps 744 mmHg 71%
02:00 +16°C° 0 mm 1 mps 743 mmHg 72%
03:00 +16°C° 0 mm 1 mps 743 mmHg 73%
04:00 +16°C° 0 mm 1 mps 743 mmHg 73%
05:00 +18°C° 0 mm 1 mps 743 mmHg 71%
06:00 +19°C° 0 mm 1 mps 743 mmHg 68%
07:00 +20°C° 0 mm 1 mps 743 mmHg 65%
08:00 +20°C° 0.1 mm 1 mps 743 mmHg 66%
09:00 +19°C° 0.1 mm 2 mps 743 mmHg 68%
10:00 +19°C° 0.1 mm 3 mps 743 mmHg 70%
11:00 +19°C° 0 mm 3 mps 743 mmHg 71%
12:00 +19°C° 0 mm 2 mps 742 mmHg 72%
13:00 +19°C° 0 mm 2 mps 742 mmHg 74%
14:00 +19°C° 0.1 mm 2 mps 742 mmHg 75%
15:00 +19°C° 0.1 mm 2 mps 742 mmHg 76%
16:00 +19°C° 0.1 mm 2 mps 742 mmHg 77%
17:00 +18°C° 0.5 mm 2 mps 742 mmHg 82%
18:00 +17°C° 0.5 mm 2 mps 742 mmHg 87%
19:00 +17°C° 0.5 mm 2 mps 742 mmHg 93%
20:00 +16°C° 0.5 mm 2 mps 742 mmHg 93%
21:00 +16°C° 0.5 mm 2 mps 742 mmHg 93%
22:00 +16°C° 0.5 mm 2 mps 743 mmHg 93%
23:00 +16°C° 0 mm 2 mps 743 mmHg 93%

2 August, Monday

Time Temperature Precipitation Wind Pressure Humidity
00:00 +15°C° 0 mm 2 mps 742 mmHg 92%
01:00 +14°C° 0 mm 2 mps 742 mmHg 91%
02:00 +14°C° 0 mm 2 mps 743 mmHg 91%
03:00 +14°C° 0 mm 2 mps 743 mmHg 91%
04:00 +14°C° 0 mm 2 mps 743 mmHg 91%
05:00 +15°C° 0 mm 2 mps 743 mmHg 86%
06:00 +16°C° 0 mm 3 mps 743 mmHg 82%
07:00 +18°C° 0 mm 3 mps 743 mmHg 77%
08:00 +19°C° 0.1 mm 3 mps 743 mmHg 71%
09:00 +21°C° 0.1 mm 4 mps 744 mmHg 65%
10:00 +22°C° 0.1 mm 5 mps 744 mmHg 59%
11:00 +22°C° 0.5 mm 5 mps 744 mmHg 60%
12:00 +21°C° 0.5 mm 5 mps 744 mmHg 62%
13:00 +21°C° 0.5 mm 6 mps 744 mmHg 64%
14:00 +22°C° 0.2 mm 6 mps 744 mmHg 60%
15:00 +22°C° 0.2 mm 6 mps 744 mmHg 55%
16:00 +23°C° 0.2 mm 6 mps 745 mmHg 51%
17:00 +21°C° 0.1 mm 5 mps 745 mmHg 55%
18:00 +20°C° 0.1 mm 4 mps 745 mmHg 60%
19:00 +19°C° 0.1 mm 3 mps 745 mmHg 64%
20:00 +18°C° 0 mm 3 mps 745 mmHg 66%
21:00 +17°C° 0 mm 2 mps 746 mmHg 68%
22:00 +17°C° 0 mm 2 mps 746 mmHg 70%
23:00 +16°C° 0 mm 2 mps 746 mmHg 71%
Show more